TimePDT,TemperatureF,Dew PointF,Humidity,Sea Level PressureIn,VisibilityMPH,Wind Direction,Wind SpeedMPH,Gust SpeedMPH,PrecipitationIn,Events,Conditions,WindDirDegrees,DateUTC
12:00 AM,57.2,39.2,51,29.96,30.0,West,11.5,18.4,N/A,,Partly Cloudy,270,2013-07-11 07:00:00
1:00 AM,57.2,39.2,51,29.96,30.0,West,12.7,19.6,N/A,,Partly Cloudy,280,2013-07-11 08:00:00
2:00 AM,55.4,41.0,58,29.97,30.0,West,11.5,-,N/A,,Partly Cloudy,280,2013-07-11 09:00:00
3:00 AM,55.4,41.0,58,29.99,30.0,West,10.4,-,N/A,,Partly Cloudy,260,2013-07-11 10:00:00
4:00 AM,53.6,41.0,62,30.00,30.0,West,11.5,-,N/A,,Partly Cloudy,260,2013-07-11 11:00:00
5:00 AM,54,42,54,30.01,28,WSW,12.7,,,,Scattered Clouds,250,2013-07-11 12:00:00
5:00 AM,53.6,42.8,67,30.01,30.0,WSW,12.7,19.6,N/A,,Partly Cloudy,250,2013-07-11 12:00:00
6:00 AM,55.4,42.8,63,30.02,30.0,West,10.4,-,N/A,,Partly Cloudy,280,2013-07-11 13:00:00
7:00 AM,55.4,42.8,63,30.04,30.0,WSW,6.9,-,N/A,,Partly Cloudy,250,2013-07-11 14:00:00
8:00 AM,60.8,42.8,52,30.04,30.0,West,9.2,-,N/A,,Partly Cloudy,270,2013-07-11 15:00:00
9:00 AM,60.8,42.8,52,30.05,30.0,West,8.1,-,N/A,,Partly Cloudy,260,2013-07-11 16:00:00
10:00 AM,62.6,42.8,48,30.05,30.0,WSW,2.3,-,N/A,,Partly Cloudy,240,2013-07-11 17:00:00
11:00 AM,65,44,34,30.06,28,East,10.4,,,,Partly Cloudy,90,2013-07-11 18:00:00
11:00 AM,66.2,42.8,43,30.06,30.0,East,10.4,-,N/A,,Scattered Clouds,90,2013-07-11 18:00:00
1:00 PM,66.2,44.6,46,30.06,30.0,East,11.5,-,N/A,,Scattered Clouds,90,2013-07-11 20:00:00
2:00 PM,66.2,46.4,49,30.06,30.0,East,11.5,-,N/A,,Partly Cloudy,90,2013-07-11 21:00:00
3:00 PM,68.0,46.4,46,30.05,30.0,ESE,9.2,-,N/A,,Partly Cloudy,110,2013-07-11 22:00:00
4:00 PM,66.2,46.4,49,30.05,30.0,East,8.1,-,N/A,,Scattered Clouds,90,2013-07-11 23:00:00
5:00 PM,66,46,37,30.03,28,East,12.7,,,,Scattered Clouds,80,2013-07-12 00:00:00
5:00 PM,66.2,46.4,49,30.03,30.0,East,12.7,-,N/A,,Partly Cloudy,90,2013-07-12 00:00:00
6:00 PM,66.2,44.6,46,30.02,30.0,East,10.4,-,N/A,,Partly Cloudy,90,2013-07-12 01:00:00
7:00 PM,64.4,46.4,52,30.01,30.0,ENE,8.1,-,N/A,,Partly Cloudy,60,2013-07-12 02:00:00
8:00 PM,62.6,48.2,59,30.01,30.0,NE,6.9,-,N/A,,Scattered Clouds,50,2013-07-12 03:00:00
9:00 PM,60.8,46.4,59,30.01,30.0,NE,4.6,-,N/A,,Scattered Clouds,50,2013-07-12 04:00:00
10:00 PM,59.0,46.4,63,30.01,30.0,WNW,2.3,-,N/A,,Partly Cloudy,290,2013-07-12 05:00:00
11:00 PM,60,48,55,30.01,28,West,8.1,,,,Scattered Clouds,270,2013-07-12 06:00:00
11:00 PM,59.0,48.2,67,30.01,30.0,West,6.9,-,N/A,,Partly Cloudy,270,2013-07-12 06:00:00